ABX3100 KCVG-KRFD

Flight info

Callsign ABX3100
Flight time 1h 12m
Altitude 34000
Route LOVEY8 MACES QUOTE1
Aircraft B763/H-SDE3FGHIJ2J3J5M3RWXY/LB1D1

Departure

Time 2026-04-28 07:25
Airport Cincinnati Northern Kentucky International Airport (KCVG)

Arrival

Time 2026-04-28 08:38
Airport Chicago Rockford International Airport (KRFD)
Time Latitude Longitude Altitude Speed Heading
2026-04-28 06:49 39.03086 -84.66368 855 ft 0 kts 90°
2026-04-28 07:05 39.03086 -84.66379 854 ft 2 kts 90°
2026-04-28 07:05 39.03086 -84.66399 854 ft 2 kts 89°
2026-04-28 07:06 39.03086 -84.66412 853 ft 1 kts 89°
2026-04-28 07:06 39.03085 -84.66430 852 ft 2 kts 66°
2026-04-28 07:06 39.03077 -84.66446 852 ft 2 kts 44°
2026-04-28 07:06 39.03065 -84.66457 852 ft 2 kts 20°
2026-04-28 07:07 39.03052 -84.66460 853 ft 0 kts
2026-04-28 07:07 39.03048 -84.66460 853 ft 0 kts 359°
2026-04-28 07:08 39.03049 -84.66460 852 ft 0 kts 359°
2026-04-28 07:09 39.03050 -84.66460 852 ft 0 kts 359°
2026-04-28 07:09 39.03071 -84.66460 852 ft 6 kts
2026-04-28 07:09 39.03129 -84.66460 851 ft 9 kts 360°
2026-04-28 07:09 39.03195 -84.66460 851 ft 9 kts 360°
2026-04-28 07:10 39.03261 -84.66460 850 ft 9 kts 359°
2026-04-28 07:10 39.03327 -84.66459 850 ft 9 kts
2026-04-28 07:10 39.03397 -84.66458 849 ft 10 kts
2026-04-28 07:10 39.03468 -84.66458 848 ft 10 kts 360°
2026-04-28 07:11 39.03540 -84.66457 848 ft 10 kts 360°
2026-04-28 07:11 39.03585 -84.66431 849 ft 6 kts 64°
2026-04-28 07:11 39.03590 -84.66372 850 ft 7 kts 90°
2026-04-28 07:11 39.03588 -84.66299 851 ft 8 kts 93°
2026-04-28 07:12 39.03585 -84.66228 852 ft 6 kts 93°
2026-04-28 07:12 39.03582 -84.66170 854 ft 6 kts 94°
2026-04-28 07:12 39.03579 -84.66109 855 ft 7 kts 93°
2026-04-28 07:12 39.03576 -84.66039 857 ft 8 kts 91°
2026-04-28 07:13 39.03575 -84.65964 860 ft 8 kts 90°
2026-04-28 07:13 39.03575 -84.65884 863 ft 9 kts 89°
2026-04-28 07:13 39.03575 -84.65802 866 ft 9 kts 90°
2026-04-28 07:13 39.03575 -84.65717 869 ft 9 kts 90°
2026-04-28 07:14 39.03574 -84.65633 872 ft 10 kts 90°
2026-04-28 07:14 39.03574 -84.65537 874 ft 10 kts 90°
2026-04-28 07:14 39.03574 -84.65457 877 ft 7 kts 90°
2026-04-28 07:14 39.03574 -84.65392 878 ft 7 kts 90°
2026-04-28 07:15 39.03574 -84.65315 880 ft 9 kts 90°
2026-04-28 07:15 39.03573 -84.65233 882 ft 9 kts 90°
2026-04-28 07:15 39.03573 -84.65142 883 ft 10 kts 90°
2026-04-28 07:15 39.03573 -84.65054 885 ft 8 kts 90°
2026-04-28 07:16 39.03572 -84.64985 886 ft 7 kts 90°
2026-04-28 07:16 39.03573 -84.64928 887 ft 5 kts 85°
2026-04-28 07:16 39.03587 -84.64897 887 ft 4 kts 33°
2026-04-28 07:16 39.03627 -84.64887 888 ft 7 kts
2026-04-28 07:17 39.03687 -84.64887 888 ft 8 kts
2026-04-28 07:17 39.03748 -84.64887 889 ft 8 kts 360°
2026-04-28 07:17 39.03813 -84.64887 890 ft 9 kts 360°
2026-04-28 07:17 39.03880 -84.64887 891 ft 10 kts 360°
2026-04-28 07:18 39.03956 -84.64887 892 ft 11 kts 360°
2026-04-28 07:18 39.04042 -84.64886 893 ft 12 kts
2026-04-28 07:18 39.04117 -84.64885 894 ft 9 kts
2026-04-28 07:18 39.04185 -84.64884 895 ft 9 kts 360°
2026-04-28 07:19 39.04252 -84.64884 895 ft 9 kts 360°
2026-04-28 07:19 39.04318 -84.64884 896 ft 9 kts 360°
2026-04-28 07:19 39.04388 -84.64883 896 ft 10 kts
2026-04-28 07:19 39.04461 -84.64883 896 ft 10 kts
2026-04-28 07:20 39.04539 -84.64883 896 ft 11 kts 360°
2026-04-28 07:20 39.04621 -84.64883 895 ft 12 kts
2026-04-28 07:20 39.04707 -84.64883 895 ft 12 kts 360°
2026-04-28 07:20 39.04793 -84.64882 894 ft 12 kts 360°
2026-04-28 07:21 39.04878 -84.64882 894 ft 12 kts
2026-04-28 07:21 39.04957 -84.64881 894 ft 11 kts 360°
2026-04-28 07:21 39.05035 -84.64881 893 ft 10 kts 360°
2026-04-28 07:22 39.05186 -84.64880 891 ft 11 kts
2026-04-28 07:22 39.05263 -84.64879 891 ft 11 kts 360°
2026-04-28 07:22 39.05344 -84.64879 889 ft 11 kts 360°
2026-04-28 07:22 39.05426 -84.64879 889 ft 12 kts
2026-04-28 07:23 39.05510 -84.64878 888 ft 10 kts
2026-04-28 07:23 39.05564 -84.64860 888 ft 6 kts 48°
2026-04-28 07:23 39.05574 -84.64806 889 ft 6 kts 90°
2026-04-28 07:23 39.05574 -84.64736 889 ft 8 kts 89°
2026-04-28 07:24 39.05569 -84.64686 890 ft 4 kts 115°
2026-04-28 07:24 39.05546 -84.64669 890 ft 4 kts 165°
2026-04-28 07:24 39.05541 -84.64669 890 ft 2 kts 179°
2026-04-28 07:24 39.05352 -84.64669 892 ft 55 kts 180°
2026-04-28 07:25 39.04769 -84.64671 898 ft 108 kts 180°
2026-04-28 07:25 39.03847 -84.64676 894 ft 155 kts 180°
2026-04-28 07:25 39.02643 -84.64677 1086 ft 181 kts 182°
2026-04-28 07:25 39.01414 -84.64671 1843 ft 174 kts 182°
2026-04-28 07:26 39.00243 -84.64440 2480 ft 178 kts 173°
2026-04-28 07:26 38.98994 -84.64021 2878 ft 192 kts 173°
2026-04-28 07:26 38.97654 -84.63569 3290 ft 208 kts 174°
2026-04-28 07:26 38.96198 -84.63226 3744 ft 217 kts 191°
2026-04-28 07:27 38.94775 -84.63857 4120 ft 225 kts 219°
2026-04-28 07:27 38.93466 -84.65082 4697 ft 238 kts 219°
2026-04-28 07:27 38.92117 -84.66309 5425 ft 246 kts 221°
2026-04-28 07:27 38.90775 -84.67665 6201 ft 246 kts 233°
2026-04-28 07:28 38.89988 -84.69593 6850 ft 247 kts 264°
2026-04-28 07:28 38.89921 -84.71725 7833 ft 242 kts 269°
2026-04-28 07:28 38.89888 -84.73870 8687 ft 242 kts 270°
2026-04-28 07:28 38.89972 -84.76035 9450 ft 247 kts 283°
2026-04-28 07:29 38.90784 -84.77994 10209 ft 257 kts 303°
2026-04-28 07:29 38.91942 -84.79808 10717 ft 270 kts 303°
2026-04-28 07:29 38.93176 -84.81748 11138 ft 287 kts 303°
2026-04-28 07:29 38.94478 -84.83759 11517 ft 306 kts 304°
2026-04-28 07:30 38.95891 -84.85922 12011 ft 321 kts 304°
2026-04-28 07:30 38.97369 -84.88179 12377 ft 340 kts 304°
2026-04-28 07:30 38.98915 -84.90530 12973 ft 351 kts 304°
2026-04-28 07:30 39.00496 -84.92924 13769 ft 355 kts 303°
2026-04-28 07:31 39.02114 -84.95386 14494 ft 361 kts 303°
2026-04-28 07:31 39.03733 -84.97842 15360 ft 362 kts 303°
2026-04-28 07:31 39.05367 -85.00335 16026 ft 367 kts 303°
2026-04-28 07:31 39.06949 -85.02897 16745 ft 366 kts 297°
2026-04-28 07:32 39.08146 -85.05753 17406 ft 364 kts 290°
2026-04-28 07:32 39.09255 -85.08712 18031 ft 370 kts 291°
2026-04-28 07:32 39.10433 -85.11784 18710 ft 374 kts 290°
2026-04-28 07:32 39.11603 -85.14862 19287 ft 379 kts 291°
2026-04-28 07:33 39.12752 -85.17898 19965 ft 381 kts 290°
2026-04-28 07:33 39.13917 -85.20993 20470 ft 387 kts 291°
2026-04-28 07:33 39.15109 -85.24156 21097 ft 390 kts 291°
2026-04-28 07:33 39.16288 -85.27298 21645 ft 394 kts 291°
2026-04-28 07:34 39.17487 -85.30495 22153 ft 399 kts 290°
2026-04-28 07:34 39.18686 -85.33698 22818 ft 399 kts 291°
2026-04-28 07:34 39.19910 -85.36967 23260 ft 406 kts 290°
2026-04-28 07:34 39.21197 -85.40213 23815 ft 415 kts 296°
2026-04-28 07:35 39.22883 -85.43277 24316 ft 429 kts 303°
2026-04-28 07:35 39.24809 -85.46265 24910 ft 434 kts 303°
2026-04-28 07:35 39.26703 -85.49262 25446 ft 441 kts 303°
2026-04-28 07:35 39.28671 -85.52362 25991 ft 447 kts 303°
2026-04-28 07:36 39.30745 -85.55630 26578 ft 453 kts 303°
2026-04-28 07:36 39.32765 -85.58819 27068 ft 459 kts 303°
2026-04-28 07:36 39.34782 -85.62005 27607 ft 463 kts 303°
2026-04-28 07:36 39.36845 -85.65271 28048 ft 470 kts 303°
2026-04-28 07:37 39.38914 -85.68542 28752 ft 469 kts 302°
2026-04-28 07:37 39.40982 -85.71819 29311 ft 472 kts 302°
2026-04-28 07:37 39.43050 -85.75098 29911 ft 474 kts 302°
2026-04-28 07:37 39.45120 -85.78390 30475 ft 474 kts 302°
2026-04-28 07:38 39.47189 -85.81677 31165 ft 473 kts 302°
2026-04-28 07:38 39.49289 -85.85021 31581 ft 477 kts 302°
2026-04-28 07:38 39.51375 -85.88346 32119 ft 478 kts 302°
2026-04-28 07:38 39.53455 -85.91666 32701 ft 477 kts 301°
2026-04-28 07:39 39.55477 -85.95077 33004 ft 480 kts 300°
2026-04-28 07:39 39.57509 -85.98534 33571 ft 479 kts 300°
2026-04-28 07:39 39.59545 -86.02000 33832 ft 478 kts 300°
2026-04-28 07:39 39.61533 -86.05387 33810 ft 476 kts 299°
2026-04-28 07:40 39.65521 -86.12189 33826 ft 473 kts 299°
2026-04-28 07:40 39.69500 -86.18996 33819 ft 474 kts 299°
2026-04-28 07:41 39.73492 -86.25834 33825 ft 472 kts 299°
2026-04-28 07:41 39.77477 -86.32674 33821 ft 472 kts 299°
2026-04-28 07:42 39.81440 -86.39494 33827 ft 474 kts 299°
2026-04-28 07:42 39.85364 -86.46259 33826 ft 471 kts 299°
2026-04-28 07:43 39.89299 -86.53056 33829 ft 468 kts 298°
2026-04-28 07:43 39.93211 -86.59833 33827 ft 469 kts 299°
2026-04-28 07:44 39.97120 -86.66615 33834 ft 469 kts 298°
2026-04-28 07:44 40.01502 -86.72961 33847 ft 480 kts 312°
2026-04-28 07:45 40.07056 -86.77953 33833 ft 489 kts 318°
2026-04-28 07:45 40.12773 -86.82890 33819 ft 490 kts 318°
2026-04-28 07:46 40.18472 -86.87798 33818 ft 489 kts 318°
2026-04-28 07:46 40.24118 -86.92666 33811 ft 486 kts 317°
2026-04-28 07:47 40.29765 -86.97544 33807 ft 488 kts 317°
2026-04-28 07:47 40.35458 -87.02470 33810 ft 489 kts 317°
2026-04-28 07:48 40.41138 -87.07393 33808 ft 488 kts 317°
2026-04-28 07:48 40.46762 -87.12392 33793 ft 477 kts 311°
2026-04-28 07:49 40.49166 -87.15312 33823 ft 462 kts 302°
2026-04-28 07:49 40.51115 -87.18604 33813 ft 449 kts 293°
2026-04-28 07:49 40.52566 -87.22162 33818 ft 437 kts 284°
2026-04-28 07:49 40.53618 -87.25839 33814 ft 433 kts 281°
2026-04-28 07:50 40.55431 -87.33325 33811 ft 430 kts 278°
2026-04-28 07:50 40.57058 -87.40877 33797 ft 428 kts 278°
2026-04-28 07:51 40.58592 -87.48398 33794 ft 421 kts 277°
2026-04-28 07:51 40.60054 -87.55786 33797 ft 420 kts 277°
2026-04-28 07:52 40.61503 -87.63215 33793 ft 420 kts 277°
2026-04-28 07:52 40.62948 -87.70680 33807 ft 420 kts 277°
2026-04-28 07:53 40.64363 -87.78022 33802 ft 416 kts 276°
2026-04-28 07:53 40.65770 -87.85375 33802 ft 415 kts 277°
2026-04-28 07:54 40.67172 -87.92733 33808 ft 415 kts 277°
2026-04-28 07:54 40.68565 -88.00047 33798 ft 409 kts 277°
2026-04-28 07:55 40.69942 -88.07338 33799 ft 413 kts 277°
2026-04-28 07:55 40.71314 -88.14602 33808 ft 408 kts 277°
2026-04-28 07:56 40.72680 -88.21880 33807 ft 410 kts 278°
2026-04-28 07:56 40.74048 -88.29182 33811 ft 412 kts 277°
2026-04-28 07:57 40.75418 -88.36523 33803 ft 409 kts 277°
2026-04-28 07:57 40.76766 -88.43778 33811 ft 408 kts 278°
2026-04-28 07:58 40.78112 -88.51056 33718 ft 409 kts 277°
2026-04-28 07:58 40.78789 -88.54736 33277 ft 411 kts 277°
2026-04-28 07:58 40.79460 -88.58371 32870 ft 406 kts 278°
2026-04-28 07:59 40.80172 -88.61923 32426 ft 404 kts 282°
2026-04-28 07:59 40.81319 -88.65346 32009 ft 408 kts 291°
2026-04-28 07:59 40.82938 -88.68437 31616 ft 417 kts 301°
2026-04-28 07:59 40.85021 -88.71201 31142 ft 431 kts 309°
2026-04-28 08:00 40.87523 -88.73541 30604 ft 449 kts 319°
2026-04-28 08:00 40.90351 -88.75354 30050 ft 464 kts 328°
2026-04-28 08:00 40.93486 -88.76596 29439 ft 474 kts 337°
2026-04-28 08:00 40.96810 -88.77187 28812 ft 486 kts 346°
2026-04-28 08:01 41.00166 -88.77504 28196 ft 485 kts 344°
2026-04-28 08:01 41.03529 -88.77977 27593 ft 480 kts 343°
2026-04-28 08:01 41.06822 -88.78509 27032 ft 474 kts 343°
2026-04-28 08:01 41.10068 -88.79076 26474 ft 469 kts 342°
2026-04-28 08:02 41.13264 -88.79670 25944 ft 463 kts 342°
2026-04-28 08:02 41.16462 -88.80283 25367 ft 460 kts 343°
2026-04-28 08:02 41.19589 -88.80896 24888 ft 454 kts 343°
2026-04-28 08:02 41.22716 -88.81517 24375 ft 448 kts 343°
2026-04-28 08:03 41.25708 -88.82388 24043 ft 431 kts 333°
2026-04-28 08:03 41.28463 -88.83822 23469 ft 429 kts 328°
2026-04-28 08:03 41.31201 -88.85432 22708 ft 432 kts 328°
2026-04-28 08:03 41.33926 -88.87036 21990 ft 431 kts 328°
2026-04-28 08:04 41.36645 -88.88649 21277 ft 428 kts 328°
2026-04-28 08:04 41.39337 -88.90247 21043 ft 409 kts 328°
2026-04-28 08:04 41.41890 -88.91773 20298 ft 400 kts 328°
2026-04-28 08:04 41.44410 -88.93288 19334 ft 397 kts 328°
2026-04-28 08:05 41.46885 -88.94783 18518 ft 390 kts 327°
2026-04-28 08:05 41.49169 -88.96571 17624 ft 377 kts 316°
2026-04-28 08:05 41.51071 -88.98851 16681 ft 366 kts 306°
2026-04-28 08:05 41.52703 -89.01416 15826 ft 359 kts 305°
2026-04-28 08:06 41.54306 -89.03928 14907 ft 356 kts 304°
2026-04-28 08:06 41.55861 -89.06432 14075 ft 351 kts 304°
2026-04-28 08:06 41.57389 -89.08921 13261 ft 345 kts 304°
2026-04-28 08:06 41.58889 -89.11378 12770 ft 339 kts 304°
2026-04-28 08:07 41.60360 -89.13803 12421 ft 337 kts 304°
2026-04-28 08:07 41.61834 -89.16244 12059 ft 341 kts 304°
2026-04-28 08:07 41.63294 -89.18657 11998 ft 322 kts 304°
2026-04-28 08:07 41.64655 -89.20911 11782 ft 303 kts 303°
2026-04-28 08:08 41.65932 -89.23025 11797 ft 279 kts 303°
2026-04-28 08:08 41.67105 -89.24981 11800 ft 267 kts 303°
2026-04-28 08:08 41.68270 -89.26927 11811 ft 265 kts 303°
2026-04-28 08:08 41.69468 -89.28805 11823 ft 273 kts 312°
2026-04-28 08:09 41.71121 -89.30207 11851 ft 289 kts 332°
2026-04-28 08:09 41.73135 -89.30837 11543 ft 309 kts 348°
2026-04-28 08:09 41.75251 -89.31039 11132 ft 303 kts 347°
2026-04-28 08:09 41.77325 -89.31281 10744 ft 296 kts 347°
2026-04-28 08:10 41.79364 -89.31530 10403 ft 291 kts 347°
2026-04-28 08:10 41.81377 -89.31783 10092 ft 285 kts 347°
2026-04-28 08:10 41.83312 -89.32030 9809 ft 278 kts 347°
2026-04-28 08:10 41.85249 -89.32282 9540 ft 277 kts 347°
2026-04-28 08:11 41.87161 -89.32531 9271 ft 276 kts 346°
2026-04-28 08:11 41.89064 -89.32779 8987 ft 273 kts 347°
2026-04-28 08:11 41.90948 -89.33025 8697 ft 270 kts 347°
2026-04-28 08:11 41.92836 -89.32893 8442 ft 283 kts 11°
2026-04-28 08:12 41.94613 -89.31595 8147 ft 296 kts 38°
2026-04-28 08:12 41.95847 -89.29360 7616 ft 306 kts 63°
2026-04-28 08:12 41.96627 -89.26681 7208 ft 304 kts 67°
2026-04-28 08:12 41.97349 -89.24030 6766 ft 303 kts 67°
2026-04-28 08:13 41.98071 -89.21381 6409 ft 299 kts 67°
2026-04-28 08:13 41.98787 -89.18761 5981 ft 297 kts 67°
2026-04-28 08:13 41.99486 -89.16191 5575 ft 295 kts 67°
2026-04-28 08:13 42.00177 -89.13614 5225 ft 291 kts 67°
2026-04-28 08:14 42.00860 -89.11060 4793 ft 291 kts 67°
2026-04-28 08:14 42.01540 -89.08482 4403 ft 288 kts 67°
2026-04-28 08:14 42.02199 -89.05959 4013 ft 286 kts 66°
2026-04-28 08:14 42.02842 -89.03483 3957 ft 279 kts 66°
2026-04-28 08:15 42.03489 -89.00973 3973 ft 286 kts 66°
2026-04-28 08:15 42.04146 -88.98451 3967 ft 289 kts 67°
2026-04-28 08:15 42.04812 -88.95898 3953 ft 287 kts 66°
2026-04-28 08:15 42.05476 -88.93354 3959 ft 286 kts 66°
2026-04-28 08:16 42.06142 -88.90808 3964 ft 287 kts 66°
2026-04-28 08:16 42.06805 -88.88297 3964 ft 286 kts 66°
2026-04-28 08:16 42.07463 -88.85786 3952 ft 285 kts 67°
2026-04-28 08:16 42.08131 -88.83249 3960 ft 286 kts 66°
2026-04-28 08:17 42.08805 -88.80701 3960 ft 288 kts 66°
2026-04-28 08:17 42.09473 -88.78167 3947 ft 287 kts 66°
2026-04-28 08:17 42.10144 -88.75642 3955 ft 286 kts 66°
2026-04-28 08:17 42.10820 -88.73109 3961 ft 287 kts 66°
2026-04-28 08:18 42.11589 -88.70611 3953 ft 285 kts 52°
2026-04-28 08:18 42.12908 -88.68787 3878 ft 260 kts 21°
2026-04-28 08:18 42.14516 -88.68136 3803 ft 234 kts 350°
2026-04-28 08:18 42.16085 -88.68497 3735 ft 224 kts 337°
2026-04-28 08:19 42.17545 -88.69160 3642 ft 220 kts 322°
2026-04-28 08:19 42.18570 -88.70550 3596 ft 201 kts 297°
2026-04-28 08:19 42.19313 -88.72128 3470 ft 196 kts 302°
2026-04-28 08:19 42.20111 -88.73547 3458 ft 185 kts 304°
2026-04-28 08:20 42.20898 -88.74854 3482 ft 171 kts 305°
2026-04-28 08:20 42.21654 -88.76053 3431 ft 164 kts 306°
2026-04-28 08:20 42.22403 -88.77204 3433 ft 164 kts 306°
2026-04-28 08:20 42.23166 -88.78352 3445 ft 167 kts 307°
2026-04-28 08:21 42.23964 -88.79533 3455 ft 168 kts 308°
2026-04-28 08:21 42.24755 -88.80688 3458 ft 166 kts 308°
2026-04-28 08:21 42.25535 -88.81820 3452 ft 165 kts 308°
2026-04-28 08:21 42.26328 -88.82967 3461 ft 167 kts 308°
2026-04-28 08:22 42.27122 -88.84114 3467 ft 167 kts 308°
2026-04-28 08:22 42.27630 -88.85460 3456 ft 162 kts 272°
2026-04-28 08:22 42.27345 -88.86949 3506 ft 168 kts 252°
2026-04-28 08:22 42.26886 -88.88442 3417 ft 174 kts 253°
2026-04-28 08:23 42.26420 -88.89945 3154 ft 177 kts 252°
2026-04-28 08:23 42.25925 -88.91498 2709 ft 186 kts 250°
2026-04-28 08:23 42.25402 -88.93097 2432 ft 182 kts 250°
2026-04-28 08:23 42.24904 -88.94585 2429 ft 166 kts 250°
2026-04-28 08:24 42.24448 -88.95940 2432 ft 147 kts 250°
2026-04-28 08:24 42.24050 -88.97120 2492 ft 131 kts 250°
2026-04-28 08:24 42.23661 -88.98292 2597 ft 142 kts 251°
2026-04-28 08:24 42.23244 -88.99538 2462 ft 141 kts 250°
2026-04-28 08:25 42.22843 -89.00723 2106 ft 143 kts 249°
2026-04-28 08:25 42.22419 -89.02022 2088 ft 160 kts 249°
2026-04-28 08:25 42.21988 -89.03352 2823 ft 155 kts 251°
2026-04-28 08:26 42.21066 -89.06084 2879 ft 168 kts 250°
2026-04-28 08:26 42.20442 -89.07641 2854 ft 207 kts 236°
2026-04-28 08:26 42.19198 -89.08746 2644 ft 224 kts 202°
2026-04-28 08:26 42.17576 -89.08733 2443 ft 242 kts 167°
2026-04-28 08:27 42.16048 -89.07738 2492 ft 248 kts 158°
2026-04-28 08:27 42.14507 -89.06586 2471 ft 257 kts 157°
2026-04-28 08:27 42.12908 -89.05398 2472 ft 268 kts 155°
2026-04-28 08:27 42.11504 -89.03693 2479 ft 277 kts 125°
2026-04-28 08:28 42.10828 -89.01235 2499 ft 283 kts 94°
2026-04-28 08:28 42.11048 -88.98654 2485 ft 279 kts 69°
2026-04-28 08:28 42.11706 -88.96185 2462 ft 282 kts 67°
2026-04-28 08:28 42.12382 -88.93718 2456 ft 277 kts 66°
2026-04-28 08:29 42.13059 -88.91296 2453 ft 277 kts 67°
2026-04-28 08:29 42.13728 -88.88858 2456 ft 282 kts 67°
2026-04-28 08:29 42.14408 -88.86385 2451 ft 281 kts 67°
2026-04-28 08:29 42.15088 -88.83930 2448 ft 271 kts 66°
2026-04-28 08:30 42.15733 -88.81586 2468 ft 262 kts 66°
2026-04-28 08:30 42.16347 -88.79329 2430 ft 253 kts 66°
2026-04-28 08:30 42.17250 -88.77418 2462 ft 231 kts 32°
2026-04-28 08:30 42.18590 -88.76578 2479 ft 199 kts 354°
2026-04-28 08:31 42.19872 -88.76778 2462 ft 178 kts 338°
2026-04-28 08:31 42.21038 -88.77281 2433 ft 173 kts 318°
2026-04-28 08:31 42.21896 -88.78336 2463 ft 169 kts 309°
2026-04-28 08:31 42.22779 -88.79463 2453 ft 175 kts 313°
2026-04-28 08:32 42.23691 -88.80540 2433 ft 171 kts 312°
2026-04-28 08:32 42.24588 -88.81574 2442 ft 169 kts 312°
2026-04-28 08:32 42.25496 -88.82600 2434 ft 169 kts 314°
2026-04-28 08:32 42.26407 -88.83616 2452 ft 169 kts 314°
2026-04-28 08:33 42.27272 -88.84669 2441 ft 165 kts 299°
2026-04-28 08:33 42.27516 -88.86089 2469 ft 158 kts 258°
2026-04-28 08:33 42.27132 -88.87502 2510 ft 160 kts 252°
2026-04-28 08:33 42.26731 -88.88856 2416 ft 147 kts 251°
2026-04-28 08:34 42.26363 -88.90048 2554 ft 130 kts 252°
2026-04-28 08:34 42.25984 -88.91269 2462 ft 145 kts 251°
2026-04-28 08:34 42.25603 -88.92442 2395 ft 133 kts 250°
2026-04-28 08:34 42.25222 -88.93618 2444 ft 139 kts 250°
2026-04-28 08:35 42.24824 -88.94825 2448 ft 143 kts 250°
2026-04-28 08:35 42.24422 -88.96025 2437 ft 134 kts 250°
2026-04-28 08:35 42.24037 -88.97176 2427 ft 135 kts 250°
2026-04-28 08:35 42.23644 -88.98352 2414 ft 143 kts 250°
2026-04-28 08:36 42.23228 -88.99593 2159 ft 145 kts 248°
2026-04-28 08:36 42.22816 -89.00787 1927 ft 136 kts 248°
2026-04-28 08:36 42.22408 -89.01937 1777 ft 136 kts 247°
2026-04-28 08:36 42.22027 -89.03113 1636 ft 139 kts 248°
2026-04-28 08:37 42.21626 -89.04306 1546 ft 137 kts 247°
2026-04-28 08:37 42.21228 -89.05479 1336 ft 138 kts 246°
2026-04-28 08:37 42.20834 -89.06660 1130 ft 138 kts 246°
2026-04-28 08:37 42.20435 -89.07828 957 ft 137 kts 246°
2026-04-28 08:38 42.20036 -89.09017 771 ft 137 kts 244°
2026-04-28 08:38 42.19714 -89.09967 754 ft 72 kts 245°
2026-04-28 08:38 42.19611 -89.10275 754 ft 12 kts 258°
2026-04-28 08:38 42.19656 -89.10346 754 ft 8 kts 340°
2026-04-28 08:39 42.19686 -89.10388 754 ft 5 kts 281°
2026-04-28 08:39 42.19676 -89.10438 754 ft 5 kts 248°
2026-04-28 08:39 42.19657 -89.10493 754 ft 8 kts 244°
2026-04-28 08:39 42.19627 -89.10579 754 ft 12 kts 245°
2026-04-28 08:40 42.19587 -89.10695 754 ft 14 kts 245°
2026-04-28 08:40 42.19545 -89.10816 754 ft 13 kts 245°
2026-04-28 08:40 42.19505 -89.10932 754 ft 13 kts 245°
2026-04-28 08:40 42.19467 -89.11043 754 ft 12 kts 245°
2026-04-28 08:41 42.19438 -89.11131 754 ft 9 kts 245°
2026-04-28 08:41 42.19414 -89.11216 754 ft 8 kts 268°
2026-04-28 08:41 42.19444 -89.11266 754 ft 6 kts 332°
2026-04-28 08:41 42.19486 -89.11292 754 ft 6 kts 335°
2026-04-28 08:42 42.19530 -89.11318 754 ft 6 kts 335°
2026-04-28 08:42 42.19574 -89.11346 754 ft 6 kts 335°
2026-04-28 08:42 42.19617 -89.11372 754 ft 6 kts 335°
2026-04-28 08:42 42.19639 -89.11407 754 ft 4 kts 272°
2026-04-28 08:43 42.19630 -89.11449 754 ft 4 kts 246°
2026-04-28 08:43 42.19619 -89.11480 754 ft 0 kts 245°
2026-04-28 08:43 42.19619 -89.11481 754 ft 0 kts 245°